User: anonymous   Login
Location: Nebula Knoll Observatory
(43.6666°N, 71.0000°W)
Time: 22:59:00
(UTC-04:00)
Language:

Cosmos 1782 - Orbit

View from above orbital plane
View from above orbital plane
View from above satellite
View from above satellite

Ground track
Ground track

The orbit data is extracted from the following two-line orbital elements,

1 16986U 86074A   15142.77987501  .00002028  00000-0  14083-3 0  9993
2 16986 082.5049 136.3693 0013210 050.1456 310.0930 15.04989155557010
Epoch (UTC): 22 May 2015 18:43:01
Eccentricity: 0.0013210
inclination: 82.5049°
perigee height: 542 km
apogee height: 560 km
right ascension of ascending node: 136.3693°
argument of perigee: 50.1456°
revolutions per day: 15.04989155
mean anomaly at epoch: 310.0930°
orbit number at epoch: 55701

The dashed part of the orbit path shows where the satellite is in the earth's shadow,  

DLR